EW9629 Weather Reports


Display with metric or nautical units.
time (UTC)temp
F
wind
direction
speed
MPH
gust
MPH
rain 1hr
in
rain 24hr
in
rain mn
in
humidity
%
barometer
mb
20190425174505 61 224 3.0 13.0 0.00 0.00 0.00 51 1013.5
20190425173101 59 209 4.0 11.0 0.00 0.00 0.00 56 1013.5
20190425170112 58 251 6.0 14.0 0.00 0.00 0.00 57 1013.6
20190425163141 59 196 3.0 9.0 0.00 0.00 0.00 55 1013.8
20190425160041 59 195 3.0 9.0 0.00 0.00 0.00 58 1013.9
20190425154614 60 120 2.0 9.0 0.00 0.00 0.00 56 1013.9
20190425153033 60 288 1.0 8.0 0.00 0.00 0.00 56 1013.8
20190425151820 59 259 1.0 7.0 0.00 0.00 0.00 50 1013.9
20190425150116 59 241 4.0 10.0 0.00 0.00 0.00 54 1014.0
20190425143048 57 301 2.0 8.0 0.00 0.00 0.00 54 1014.1
20190425140051 55 248 1.0 6.0 0.00 0.00 0.00 59 1014.3
20190425134708 54 260 1.0 4.0 0.00 0.00 0.00 62 1014.4
20190425133041 54 71 1.0 5.0 0.00 0.00 0.00 61 1014.5
20190425130027 53 67 2.0 8.0 0.00 0.00 0.00 62 1014.3
20190425124846 52 312 2.0 6.0 0.00 0.00 0.00 64 1014.3
20190425123010 51 280 4.0 8.0 0.00 0.00 0.00 68 1014.4
20190425121606 49 15 1.0 9.0 0.00 0.00 0.00 73 1014.4
20190425120114 49 29 3.0 9.0 0.00 0.00 0.00 72 1014.2
20190425114546 48 6 1.0 5.0 0.00 0.00 0.00 76 1014.1
20190425113045 47 353 2.0 6.0 0.00 0.00 0.00 76 1014.0
20190425111527 46 320 1.0 8.0 0.00 0.00 0.00 78 1013.8
20190425110025 46 334 3.0 9.0 0.00 0.00 0.00 78 1013.4
20190425104521 45 329 3.0 9.0 0.00 0.00 0.00 81 1013.2
20190425103030 44 353 4.0 8.0 0.00 0.00 0.00 82 1013.2
20190425101513 43 347 2.0 5.0 0.00 0.00 0.00 83 1012.8
20190425100049 43 295 1.0 5.0 0.00 0.01 0.00 84 1012.6
20190425094514 43 329 2.0 4.0 0.00 0.01 0.00 83 1012.4
20190425093013 43 301 1.0 4.0 0.00 0.01 0.00 83 1012.2
20190425090002 44 336 2.0 7.0 0.00 0.01 0.00 82 1012.3
20190425084618 44 321 0.0 3.0 0.00 0.01 0.00 81 1012.2
20190425083158 44 346 0.0 4.0 0.00 0.01 0.00 81 1012.1
20190425081711 44 316 1.0 5.0 0.00 0.01 0.00 80 1012.1
20190425080224 45 324 1.0 4.0 0.00 0.01 0.00 80 1012.3
20190425074723 45 335 2.0 4.0 0.00 0.12 0.00 80 1012.4
20190425073220 45 332 2.0 5.0 0.00 0.12 0.00 80 1012.3
20190425070112 45 312 1.0 5.0 0.00 0.12 0.00 79 1012.2
20190425064721 45 316 2.0 4.0 0.00 0.13 0.00 79 1012.1
20190425063130 45 323 2.0 4.0 0.00 0.13 0.00 79 1011.9
20190425061620 45 320 1.0 4.0 0.00 0.13 0.00 78 1011.9
20190425060124 45 326 1.0 5.0 0.00 0.13 0.00 78 1011.8
20190425054649 46 347 0.0 4.0 0.00 0.13 0.00 78 1011.7
20190425053107 46 320 0.0 3.0 0.00 0.13 0.00 77 1011.6
20190425051547 47 353 0.0 1.0 0.00 0.13 0.00 76 1011.7
20190425050115 48 351 0.0 3.0 0.00 0.13 0.00 73 1011.7
20190425044603 48 355 0.0 5.0 0.00 0.16 0.00 71 1011.6
20190425043034 49 2 1.0 5.0 0.00 0.16 0.00 70 1011.5
20190425041535 49 341 3.0 8.0 0.00 0.16 0.00 69 1011.3
20190425040034 50 333 2.0 6.0 0.00 0.16 0.16 69 1011.1
20190425034524 50 356 2.0 5.0 0.00 0.16 0.16 67 1010.9
20190425033031 51 338 2.0 6.0 0.00 0.16 0.16 66 1011.0
20190425031529 51 304 1.0 7.0 0.00 0.16 0.16 65 1010.8
20190425030020 52 20 2.0 9.0 0.00 0.16 0.16 64 1010.7
20190425024525 52 20 3.0 10.0 0.00 0.16 0.16 62 1010.6
20190425023033 53 322 3.0 10.0 0.00 0.16 0.16 63 1010.7
20190425021512 54 3 3.0 13.0 0.00 0.16 0.16 61 1010.6
20190425020019 54 274 2.0 11.0 0.00 0.16 0.16 59 1010.5
20190425014523 55 347 5.0 13.0 0.00 0.16 0.16 58 1010.3
20190425013017 56 341 2.0 16.0 0.00 0.16 0.16 57 1010.0
20190425011507 56 354 5.0 11.0 0.00 0.16 0.16 57 1009.9
20190425010012 56 287 3.0 11.0 0.00 0.16 0.16 58 1009.6
20190425004518 57 329 3.0 10.0 0.00 0.16 0.16 56 1009.3
20190425003013 58 352 2.0 8.0 0.00 0.16 0.16 55 1009.0
20190425001543 58 336 2.0 11.0 0.00 0.16 0.16 54 1008.6
20190425000011 59 20 7.0 13.0 0.00 0.16 0.16 52 1008.4
20190424234508 60 348 2.0 9.0 0.00 0.16 0.16 52 1008.1
20190424233008 61 323 4.0 12.0 0.00 0.16 0.16 50 1007.8
20190424231826 62 1 4.0 11.0 0.00 0.16 0.16 50 1007.5
20190424230202 62 345 4.0 12.0 0.00 0.16 0.16 48 1007.2
20190424224511 63 316 5.0 15.0 0.00 0.16 0.16 47 1006.9
20190424223151 64 353 5.0 12.0 0.00 0.16 0.16 45 1006.7
20190424221545 65 328 5.0 11.0 0.00 0.16 0.16 44 1006.5
20190424214537 67 233 3.0 15.0 0.00 0.16 0.16 43 1006.0
20190424211847 68 310 5.0 17.0 0.00 0.16 0.16 41 1005.5
20190424210023 68 333 4.0 13.0 0.00 0.16 0.16 41 1005.1
20190424203050 69 255 5.0 15.0 0.00 0.16 0.16 40 1004.8
20190424200157 68 287 7.0 15.0 0.00 0.16 0.16 42 1004.6
20190424194549 67 318 2.0 11.0 0.00 0.16 0.16 43 1004.6
20190424191555 68 304 5.0 12.0 0.00 0.16 0.16 43 1004.4
20190424190026 68 233 5.0 11.0 0.00 0.16 0.16 45 1004.5
20190424183114 71 332 3.0 14.0 0.00 0.16 0.16 42 1004.5
20190424180128 70 306 4.0 11.0 0.00 0.16 0.16 46 1004.5